RH
11 13 15 20 23 26 29 25 22 20 20 21 20 14 11 10 10 8 6 6 6 5 3 3 4 6 4 5 5 7 9 10 60 100 100 100 100 68 100 98 53 35 27 93 15
12 13 15 21 22 26 28 25 24 22 21 23 18 13 11 11 9 7 6 6 6 5 3 3 6 6 3 4 5 8 10 13 42 100 97 100 93 100 100 100 97 36 43 31 5
11 14 18 20 25 28 31 32 29 22 24 22 16 12 11 11 9 7 7 7 7 4 3 4 8 5 3 4 5 8 10 17 20 67 100 95 100 100 83 100 95 54 72 44 12
13 14 17 23 27 28 32 34 25 22 26 19 14 13 12 11 9 8 8 8 6 4 3 5 7 5 4 4 7 10 12 16 17 21 92 100 100 100 88 91 98 100 98 91 37
12 14 23 27 30 32 33 30 24 27 26 17 14 13 13 10 9 8 9 8 6 4 3 5 6 5 5 6 9 12 14 17 21 24 55 99 98 100 94 50 99 99 92 91 48
12 19 25 28 27 33 34 30 29 30 23 18 16 15 13 11 10 10 10 9 6 4 4 6 6 6 6 6 10 14 18 21 24 25 26 64 94 98 83 55 99 100 100 90 58
19 23 29 27 29 32 33 34 33 31 22 19 16 16 14 12 11 11 12 10 6 4 5 7 7 7 7 7 12 16 22 29 42 25 22 36 76 93 88 62 89 100 100 99 71
22 31 29 27 31 33 33 34 33 29 24 20 18 17 15 13 12 12 14 11 6 4 4 8 8 8 9 8 22 27 58 56 63 26 23 26 42 100 86 60 94 100 100 95 70
29 32 29 29 31 34 34 34 33 29 25 22 19 18 16 16 15 16 16 12 7 4 5 8 9 10 12 9 55 96 85 81 94 69 52 24 44 98 90 73 99 100 95 90 67
30 34 28 29 30 33 35 35 34 30 26 24 21 17 16 16 15 16 17 14 8 5 5 8 10 12 15 11 49 52 39 46 84 88 58 78 91 100 98 89 100 69 77 78 61
28 32 28 27 31 33 38 38 33 29 25 23 21 18 18 17 18 19 19 16 8 6 6 8 17 16 23 13 16 32 37 32 54 64 50 99 97 100 99 99 94 96 100 91 64
20 33 26 24 28 34 37 40 31 30 26 27 23 21 17 15 17 19 22 17 9 6 6 7 12 19 27 16 17 28 32 34 85 100 60 100 94 100 100 100 100 98 99 100 66
21 27 24 24 34 40 42 39 33 31 25 29 23 24 15 13 16 19 21 18 10 6 6 8 14 22 32 19 19 30 29 35 94 100 69 100 98 98 100 100 99 100 97 94 81
42 40 28 36 37 36 43 42 38 30 26 27 23 18 15 12 18 24 26 17 10 7 5 8 11 26 32 19 20 30 30 37 93 98 99 95 100 90 98 100 99 98 90 100 88
45 45 29 40 40 42 42 41 40 37 34 23 22 20 12 13 16 24 28 18 11 8 6 8 15 31 37 18 22 30 32 36 70 87 87 100 100 96 99 92 98 100 97 87 84
54 43 35 49 45 44 44 40 36 37 33 31 24 16 12 11 12 24 30 18 11 8 6 8 19 36 39 24 25 31 32 32 46 57 83 96 100 100 100 92 100 100 97 98 72
54 45 46 54 44 41 44 36 34 33 30 26 22 12 9 8 14 27 30 19 11 8 6 8 23 36 37 32 32 34 36 42 75 72 89 86 97 99 87 94 100 100 97 80 64
55 51 53 51 46 44 44 38 36 34 29 27 18 10 9 9 14 26 29 17 10 8 6 8 30 38 43 45 56 41 40 55 94 99 81 76 92 85 76 98 100 100 99 72 63
54 55 47 47 45 44 44 37 38 34 30 24 16 12 11 12 22 32 25 17 10 8 6 10 34 47 46 60 80 75 50 40 76 98 91 97 100 100 99 98 100 100 100 83 96
50 54 51 49 47 43 45 42 39 32 28 24 18 15 14 12 28 36 26 19 10 8 7 9 32 54 54 49 80 88 75 68 96 98 100 98 95 87 93 96 99 100 98 78 99
45 46 46 43 50 47 45 48 39 32 29 28 16 17 13 14 29 36 29 19 10 8 8 8 44 58 57 51 73 93 84 77 96 100 100 100 100 85 100 99 96 99 100 100 95
46 43 40 43 46 48 51 47 38 30 28 25 19 20 14 18 34 34 27 19 9 9 9 9 36 66 71 65 54 92 93 73 100 100 100 86 100 92 97 95 96 98 99 99 99
47 51 57 50 47 51 48 44 29 24 19 20 21 18 14 22 33 34 25 18 10 10 10 8 49 63 73 85 50 100 88 89 84 100 100 100 100 98 91 89 91 99 98 97 99
49 54 54 49 50 50 45 29 23 19 15 16 16 18 17 29 36 34 25 16 10 11 13 7 21 70 78 89 68 99 89 81 66 92 100 99 100 100 98 84 76 97 100 98 100
56 56 56 52 55 49 30 22 21 18 17 25 18 22 24 36 37 33 25 16 12 12 14 9 9 72 82 85 92 94 99 85 81 65 100 97 100 100 100 100 76 84 100 100 100
59 58 62 66 60 47 24 20 19 18 18 20 22 25 29 36 36 32 23 16 12 12 16 12 9 46 80 74 80 84 84 82 98 62 84 97 99 100 99 98 91 84 95 99 100
54 56 68 66 60 34 23 21 19 18 21 22 29 27 34 36 34 30 21 15 15 14 18 14 10 24 71 76 72 89 80 94 87 94 68 90 100 100 86 99 97 88 90 100 100
Wind_Speed
27 28 29 33 37 38 36 34 32 33 34 36 39 41 45 51 55 59 61 67 70 73 76 70 52 44 41 34 35 33 33 29 26 35 32 43 50 55 49 41 57 67 70 54 60
28 30 32 35 40 40 37 34 34 35 36 39 41 43 47 52 57 60 64 70 74 73 73 59 45 47 45 34 28 29 30 22 30 30 34 40 49 50 55 62 49 55 64 65 67
29 32 33 37 42 39 37 36 36 36 37 40 41 44 49 53 57 61 65 70 75 73 70 55 45 46 43 29 24 24 25 23 26 35 24 34 41 59 63 47 39 51 40 55 67
30 33 36 40 42 42 39 37 36 37 39 41 41 45 49 55 58 64 66 71 73 69 65 53 45 47 43 24 17 17 18 18 20 34 40 21 45 41 55 55 55 51 41 37 62
31 35 38 41 43 42 40 37 38 40 40 41 43 46 51 56 60 63 66 71 73 67 61 50 45 45 42 22 14 12 16 16 19 25 40 32 37 44 47 70 63 61 53 57 58
33 37 41 42 46 43 41 38 40 42 40 42 44 47 52 57 61 64 66 71 73 66 57 50 45 45 42 20 12 10 11 12 13 19 37 40 35 32 43 68 49 50 51 58 50
31 36 40 43 43 43 42 40 41 41 42 44 45 48 52 56 59 64 67 69 71 64 55 49 46 44 42 18 8 7 7 8 11 16 27 35 34 29 47 61 61 40 46 67 61
29 34 38 44 43 43 44 40 42 40 43 46 48 50 53 58 60 63 68 72 70 64 55 47 43 42 38 14 4 3 6 6 6 11 20 31 29 32 42 59 59 49 53 63 69
28 34 37 40 42 44 46 43 42 41 44 48 50 51 55 60 62 64 67 68 68 63 52 44 41 41 32 10 1 5 9 8 7 14 17 23 27 26 31 46 46 44 56 58 69
29 32 37 39 43 45 46 44 43 42 44 48 51 54 55 58 61 64 67 69 66 61 50 43 39 37 34 10 9 8 7 12 12 13 12 17 23 22 27 43 42 46 52 59 70
31 36 40 41 43 46 46 44 43 42 45 47 48 54 55 60 62 65 66 67 66 62 48 41 33 33 31 11 10 10 9 11 8 9 14 18 22 17 31 37 41 58 52 62 69
33 37 41 41 43 47 46 45 43 44 46 47 49 55 57 60 61 63 64 66 62 56 46 39 33 31 27 11 8 11 11 10 15 5 18 18 19 20 30 30 38 34 57 64 69
33 38 41 41 46 46 44 43 42 44 47 44 52 54 56 60 61 61 61 61 61 56 42 34 29 28 25 10 8 9 11 9 17 6 18 15 13 18 17 19 34 40 52 70 71
35 39 40 42 45 46 44 41 43 44 47 48 52 54 57 60 63 61 61 61 60 53 40 32 26 24 25 7 9 9 11 10 17 11 17 13 10 18 19 17 20 25 55 65 71
38 41 38 44 48 46 42 42 42 46 49 50 52 55 58 62 63 61 59 59 59 55 40 30 22 22 25 5 9 8 9 10 13 13 18 22 11 22 23 26 15 18 38 54 61
42 38 39 45 45 42 40 40 42 45 49 48 51 54 57 60 61 60 58 60 56 53 39 27 21 21 20 3 8 8 7 7 10 16 17 24 6 22 23 24 23 17 32 39 55
41 39 40 42 41 39 38 40 43 46 49 49 51 54 56 59 60 57 56 55 51 50 41 27 19 17 19 2 6 7 7 7 11 16 16 18 13 13 30 32 16 17 35 42 53
41 38 39 38 38 38 38 41 44 47 48 49 51 55 56 58 59 56 53 54 51 49 39 25 14 14 15 1 6 7 9 9 15 13 16 16 11 12 32 30 15 15 36 44 49
36 32 34 37 37 37 38 43 45 47 46 48 51 54 58 58 56 52 51 53 48 46 35 23 12 12 14 4 5 5 8 9 14 15 17 15 14 9 16 31 16 17 33 41 37
31 30 33 35 35 36 38 41 44 46 46 50 52 54 56 57 54 51 49 50 47 43 35 23 12 8 12 6 8 5 10 15 16 20 11 15 17 16 23 30 17 20 35 50 42
29 29 30 34 35 36 37 42 44 45 48 49 53 53 55 54 51 49 48 47 44 41 33 21 12 7 12 12 10 10 10 15 19 17 19 16 13 14 16 18 21 13 36 38 43
31 31 32 34 35 36 41 42 45 47 47 50 52 54 54 51 47 46 44 45 42 39 31 21 7 6 10 13 7 15 9 18 19 19 16 19 14 13 11 18 21 9 34 34 33
30 33 33 34 36 37 39 41 45 46 48 49 52 52 53 49 46 43 43 43 41 37 31 23 7 6 6 10 5 18 14 14 19 21 17 23 20 15 14 17 23 13 30 39 37
31 34 33 33 35 37 40 42 44 46 48 50 51 51 53 47 44 42 42 41 39 37 30 24 7 5 6 7 2 13 15 16 18 21 22 24 23 20 20 16 22 28 30 29 30
32 35 32 32 36 38 39 40 44 49 50 50 52 50 48 44 43 41 41 40 37 34 29 24 10 8 6 4 3 18 15 16 18 24 23 24 26 25 25 22 21 29 20 28 32
32 34 33 35 36 39 40 41 45 48 51 52 53 48 46 44 42 41 41 38 35 32 27 25 12 11 9 7 5 6 19 19 19 22 26 25 29 25 26 25 21 25 22 25 32
31 33 33 35 38 38 39 44 48 51 54 54 50 48 45 42 42 40 39 36 33 30 26 24 17 10 12 10 7 5 22 22 21 21 23 27 31 25 31 28 28 24 23 23 31
Wind_Direction
326 328 327 330 333 333 330 328 327 324 326 331 335 333 332 327 324 326 328 328 331 331 330 328 324 322 319 306 296 283 278 276 246 235 225 217 207 208 203 212 217 214 222 216 230
324 325 327 330 334 334 333 331 329 328 331 335 335 333 331 328 327 330 332 332 333 332 335 329 325 328 327 314 294 281 279 270 233 227 228 220 216 206 204 200 216 217 222 222 226
321 325 328 330 334 335 334 331 330 331 334 337 335 334 331 330 331 333 335 336 336 335 338 331 329 332 332 318 298 284 282 262 236 220 206 227 216 208 204 192 198 211 220 220 221
322 324 328 331 334 334 334 332 331 332 335 337 338 335 332 333 334 337 338 337 339 340 339 333 333 336 337 321 297 290 272 255 242 224 211 194 216 198 209 192 182 190 185 208 216
321 324 329 333 337 333 333 333 332 333 336 339 339 336 335 336 337 338 337 339 342 343 340 336 335 339 340 323 297 283 273 258 243 227 215 215 211 205 206 193 196 184 194 200 200
321 326 330 337 339 334 333 333 332 336 337 341 338 337 337 340 339 338 339 340 343 346 340 337 339 343 342 323 296 282 274 262 242 233 214 224 223 216 198 196 185 190 187 190 184
324 325 331 338 341 336 334 331 333 336 338 340 338 338 338 339 340 339 339 341 344 346 342 339 340 345 342 325 283 289 287 282 265 236 220 223 221 194 197 196 190 193 210 207 197
323 325 333 338 340 335 332 331 335 335 338 338 340 339 338 340 341 340 341 343 346 347 340 339 342 344 344 326 282 282 345 306 260 206 213 224 219 195 195 192 192 204 201 202 191
320 326 334 337 340 335 331 333 336 335 336 338 341 341 340 340 340 340 341 341 344 348 341 341 343 342 347 321 249 234 191 206 206 208 206 219 215 212 194 197 205 205 190 192 189
317 326 334 336 338 335 334 334 337 335 335 340 341 341 340 340 340 340 340 343 346 346 345 342 344 344 345 314 228 209 211 196 202 212 210 199 192 183 195 200 205 198 202 193 190
314 320 329 336 336 334 336 337 336 336 339 341 339 341 340 340 341 339 342 344 346 348 345 342 341 342 344 319 228 211 203 202 212 234 199 183 196 177 200 197 197 192 194 191 189
313 317 326 333 334 332 337 338 338 337 337 340 340 340 340 341 340 340 341 343 347 348 344 339 342 341 345 320 232 206 202 202 174 130 177 185 200 192 193 202 208 213 196 193 190
317 318 324 330 330 333 335 336 336 336 337 341 338 338 339 340 340 339 341 342 348 351 346 339 341 342 347 321 216 203 199 195 187 161 173 181 190 204 200 196 198 193 203 195 192
322 323 322 330 330 329 334 335 336 334 338 341 338 340 339 338 340 339 341 345 350 351 348 342 342 347 350 320 202 203 193 187 180 147 167 150 208 198 215 201 207 199 199 195 195
322 323 321 325 326 333 334 335 335 333 338 338 339 339 338 340 340 340 341 345 349 352 350 345 347 346 350 335 193 197 190 181 205 179 176 150 163 200 200 212 197 185 202 197 200
322 321 321 324 329 333 335 337 336 335 336 336 336 338 338 339 340 340 344 346 348 353 353 350 350 346 353 346 188 193 185 179 188 186 178 186 88 189 199 199 177 164 182 177 201
323 320 320 327 332 334 336 336 336 336 336 336 335 336 338 339 339 340 342 344 351 354 354 352 351 357 358 10 190 183 162 145 154 163 183 188 201 175 197 189 160 142 192 196 194
320 319 322 330 330 333 335 334 333 336 335 334 335 337 337 339 340 342 343 346 351 355 354 350 357 357 2 21 201 174 163 158 146 158 169 167 194 231 201 195 142 131 182 194 191
317 317 321 327 329 331 332 334 333 333 333 332 334 335 339 339 340 342 344 344 351 355 355 354 358 352 360 336 224 194 149 148 154 157 155 164 144 179 222 202 138 132 173 179 192
313 316 318 323 326 328 328 332 332 332 330 332 335 337 339 340 339 342 344 345 351 354 355 352 354 354 1 354 218 196 157 142 150 145 171 170 182 201 221 215 153 137 180 187 172
308 314 317 323 325 325 326 328 331 329 329 332 335 338 340 339 337 341 342 344 348 353 354 352 349 349 346 355 217 205 170 156 150 146 144 163 163 184 223 230 193 133 172 182 195
303 313 317 320 326 326 326 326 328 327 329 332 334 338 341 338 338 339 341 344 348 353 354 349 346 328 349 354 208 207 182 166 162 162 152 158 161 161 206 230 209 156 165 159 161
305 313 316 320 323 325 326 324 325 326 329 333 335 339 342 337 337 339 340 343 348 352 353 348 316 295 340 1 205 204 200 180 177 166 147 160 156 169 182 226 225 163 161 163 171
306 312 315 319 321 326 325 323 325 328 331 335 339 339 342 336 338 337 339 344 348 351 353 349 317 276 309 352 277 198 216 201 184 179 179 172 159 166 166 196 225 214 161 149 162
302 311 313 318 321 322 322 321 324 329 331 335 338 337 338 337 337 335 339 342 346 349 351 349 323 245 276 298 328 204 195 200 194 189 186 176 170 169 165 167 212 219 175 149 163
301 306 309 315 316 319 319 323 327 328 332 334 336 336 336 337 336 334 337 341 344 348 350 347 332 236 254 270 294 247 211 208 202 199 196 182 187 163 168 171 181 215 215 162 173
298 305 309 314 314 314 317 321 326 328 329 331 334 335 336 334 334 333 335 338 342 348 350 346 337 244 239 256 275 259 208 204 205 207 203 202 193 174 174 178 168 187 199 182 164